Time,TemperatureF,DewpointF,PressureIn,WindDirection,WindDirectionDegrees,WindSpeedMPH,WindSpeedGustMPH,Humidity,HourlyPrecipIn,Conditions,Clouds,dailyrainin,SoftwareType,DateUTC
2013-07-20 00:04:00,79.1,63.1,29.98,NNE,27,0.0,0.0,58,0.00,,SKC,0.00,VWS V13.01,2013-07-20 05:04:00,
2013-07-20 00:09:00,79.0,63.0,29.98,NNE,27,0.0,0.0,58,0.00,,SKC,0.00,VWS V13.01,2013-07-20 05:09:00,
2013-07-20 00:14:00,78.9,63.4,29.98,NNE,27,0.0,0.0,59,0.00,,SKC,0.00,VWS V13.01,2013-07-20 05:14:00,
2013-07-20 00:19:00,78.8,63.8,29.98,NNE,27,0.0,0.0,60,0.00,,SKC,0.00,VWS V13.01,2013-07-20 05:19:00,
2013-07-20 00:24:00,78.7,63.2,29.98,NNE,27,0.0,0.0,59,0.00,,SKC,0.00,VWS V13.01,2013-07-20 05:24:00,
2013-07-20 00:29:00,78.5,63.5,29.98,NNE,27,0.0,0.0,60,0.00,,SKC,0.00,VWS V13.01,2013-07-20 05:29:00,
2013-07-20 00:34:00,78.4,63.4,29.98,NNE,27,0.0,0.0,60,0.00,,SKC,0.00,VWS V13.01,2013-07-20 05:34:00,
2013-07-20 00:39:00,78.3,63.8,29.98,NNE,27,0.0,0.0,61,0.00,,SKC,0.00,VWS V13.01,2013-07-20 05:39:00,
2013-07-20 00:44:00,78.1,63.6,29.99,NNE,27,0.0,0.0,61,0.00,,SKC,0.00,VWS V13.01,2013-07-20 05:44:00,
2013-07-20 00:49:00,78.0,63.5,29.99,NNE,27,0.0,0.0,61,0.00,,SKC,0.00,VWS V13.01,2013-07-20 05:49:00,
2013-07-20 00:54:00,77.9,63.4,29.99,NNE,27,0.0,0.0,61,0.00,,SKC,0.00,VWS V13.01,2013-07-20 05:54:00,
2013-07-20 00:59:00,77.8,63.8,29.99,NNE,27,0.0,0.0,62,0.00,,SKC,0.00,VWS V13.01,2013-07-20 05:59:00,
2013-07-20 01:04:00,77.8,63.8,29.99,NNE,27,0.0,0.0,62,0.00,,SKC,0.00,VWS V13.01,2013-07-20 06:04:00,
2013-07-20 01:09:00,77.7,63.2,29.99,NNE,27,0.0,0.0,61,0.00,,SKC,0.00,VWS V13.01,2013-07-20 06:09:00,
2013-07-20 01:14:00,77.7,63.7,29.99,NNE,27,0.0,0.0,62,0.00,,SKC,0.00,VWS V13.01,2013-07-20 06:14:00,
2013-07-20 01:19:00,77.7,63.7,29.99,NNE,27,0.0,0.0,62,0.00,,SKC,0.00,VWS V13.01,2013-07-20 06:19:00,
2013-07-20 01:24:00,77.8,63.8,29.99,NNE,31,0.0,0.0,62,0.00,,SKC,0.00,VWS V13.01,2013-07-20 06:24:00,
2013-07-20 01:29:00,77.7,63.7,29.98,NNE,31,1.0,1.0,62,0.00,,SKC,0.00,VWS V13.01,2013-07-20 06:29:00,
2013-07-20 01:34:00,77.8,63.8,29.98,NNE,31,0.0,0.0,62,0.00,,SKC,0.00,VWS V13.01,2013-07-20 06:34:00,
2013-07-20 01:39:00,77.8,63.8,29.98,NNE,33,0.0,0.0,62,0.00,,SKC,0.00,VWS V13.01,2013-07-20 06:39:00,
2013-07-20 01:44:00,77.8,63.3,29.98,NE,35,0.0,2.0,61,0.00,,SKC,0.00,VWS V13.01,2013-07-20 06:44:00,
2013-07-20 01:49:00,77.8,63.3,29.99,NE,35,0.0,1.0,61,0.00,,SKC,0.00,VWS V13.01,2013-07-20 06:49:00,
2013-07-20 01:55:00,77.8,62.8,29.99,NE,37,0.0,1.0,60,0.00,,SKC,0.00,VWS V13.01,2013-07-20 06:55:00,
2013-07-20 02:01:00,77.8,62.8,29.99,NE,38,0.0,0.0,60,0.00,,SKC,0.00,VWS V13.01,2013-07-20 07:01:00,
2013-07-20 02:06:00,77.8,62.8,29.99,NE,38,0.0,1.0,60,0.00,,SKC,0.00,VWS V13.01,2013-07-20 07:06:00,
2013-07-20 02:11:00,77.7,62.7,29.99,NE,39,0.0,2.0,60,0.00,,SKC,0.00,VWS V13.01,2013-07-20 07:11:00,
2013-07-20 02:17:00,77.7,62.7,29.98,NE,39,0.0,0.0,60,0.00,,SKC,0.00,VWS V13.01,2013-07-20 07:17:00,
2013-07-20 02:22:00,77.6,62.6,29.98,NE,39,0.0,2.0,60,0.00,,SKC,0.00,VWS V13.01,2013-07-20 07:22:00,
2013-07-20 02:28:00,77.5,62.5,29.98,NE,35,0.0,1.0,60,0.00,,SKC,0.00,VWS V13.01,2013-07-20 07:28:00,
2013-07-20 02:33:00,77.4,62.4,29.98,NE,35,0.0,0.0,60,0.00,,SKC,0.00,VWS V13.01,2013-07-20 07:33:00,
2013-07-20 02:38:00,77.3,62.3,29.98,NE,35,0.0,0.0,60,0.00,,SKC,0.00,VWS V13.01,2013-07-20 07:38:00,
2013-07-20 02:43:00,77.1,62.2,29.98,NE,35,0.0,3.0,60,0.00,,SKC,0.00,VWS V13.01,2013-07-20 07:43:00,
2013-07-20 02:48:00,76.9,62.4,29.98,NE,35,0.0,0.0,61,0.00,,SKC,0.00,VWS V13.01,2013-07-20 07:48:00,
2013-07-20 02:53:00,76.6,62.2,29.98,NE,35,0.0,1.0,61,0.00,,SKC,0.00,VWS V13.01,2013-07-20 07:53:00,
2013-07-20 02:58:00,76.4,62.0,29.98,NE,35,0.0,0.0,61,0.00,,SKC,0.00,VWS V13.01,2013-07-20 07:58:00,
2013-07-20 03:03:00,76.2,61.8,29.98,NE,35,0.0,0.0,61,0.00,,SKC,0.00,VWS V13.01,2013-07-20 08:03:00,
2013-07-20 03:08:00,76.0,62.0,29.98,NE,35,0.0,0.0,62,0.00,,SKC,0.00,VWS V13.01,2013-07-20 08:08:00,
2013-07-20 03:13:00,75.7,61.8,29.98,NE,35,0.0,1.0,62,0.00,,SKC,0.00,VWS V13.01,2013-07-20 08:13:00,
2013-07-20 03:18:00,75.5,61.6,29.98,NE,36,0.0,3.0,62,0.00,,SKC,0.00,VWS V13.01,2013-07-20 08:18:00,
2013-07-20 03:23:00,75.2,61.8,29.98,NE,37,0.0,1.0,63,0.00,,SKC,0.00,VWS V13.01,2013-07-20 08:23:00,
2013-07-20 03:29:00,75.0,61.6,29.98,NE,46,0.0,2.0,63,0.00,,SKC,0.00,VWS V13.01,2013-07-20 08:29:00,
2013-07-20 03:34:00,74.8,61.4,29.98,NE,45,0.0,1.0,63,0.00,,SKC,0.00,VWS V13.01,2013-07-20 08:34:00,
2013-07-20 03:39:00,74.7,61.7,29.97,NE,48,0.0,1.0,64,0.00,,SKC,0.00,VWS V13.01,2013-07-20 08:39:00,
2013-07-20 03:44:00,74.6,61.6,29.97,NE,47,0.0,3.0,64,0.00,,SKC,0.00,VWS V13.01,2013-07-20 08:44:00,
2013-07-20 03:49:00,74.4,61.4,29.97,NE,46,0.0,0.0,64,0.00,,SKC,0.00,VWS V13.01,2013-07-20 08:49:00,
2013-07-20 03:54:00,74.3,61.3,29.97,NE,48,3.0,3.0,64,0.00,,SKC,0.00,VWS V13.01,2013-07-20 08:54:00,
2013-07-20 03:59:00,74.2,61.2,29.96,NNE,31,1.0,2.0,64,0.00,,SKC,0.00,VWS V13.01,2013-07-20 08:59:00,
2013-07-20 04:04:00,74.1,61.2,29.96,NE,35,0.0,2.0,64,0.00,,SKC,0.00,VWS V13.01,2013-07-20 09:04:00,
2013-07-20 04:09:00,74.0,60.6,29.96,NE,43,3.0,3.0,63,0.00,,SKC,0.00,VWS V13.01,2013-07-20 09:09:00,
2013-07-20 04:14:00,73.9,60.5,29.95,NE,43,0.0,2.0,63,0.00,,SKC,0.00,VWS V13.01,2013-07-20 09:14:00,
2013-07-20 04:19:00,73.8,60.4,29.95,NE,41,0.0,1.0,63,0.00,,SKC,0.00,VWS V13.01,2013-07-20 09:19:00,
2013-07-20 04:24:00,73.7,60.3,29.95,NE,44,0.0,0.0,63,0.00,,SKC,0.00,VWS V13.01,2013-07-20 09:24:00,
2013-07-20 04:30:00,73.6,60.2,29.95,NE,43,0.0,0.0,63,0.00,,SKC,0.00,VWS V13.01,2013-07-20 09:30:00,
2013-07-20 04:35:00,73.5,59.7,29.95,NE,44,0.0,0.0,62,0.00,,SKC,0.00,VWS V13.01,2013-07-20 09:35:00,
2013-07-20 04:40:00,73.3,59.5,29.95,NE,45,0.0,1.0,62,0.00,,SKC,0.00,VWS V13.01,2013-07-20 09:40:00,
2013-07-20 04:46:00,73.3,59.5,29.95,NE,47,0.0,2.0,62,0.00,,SKC,0.00,VWS V13.01,2013-07-20 09:46:00,
2013-07-20 04:51:00,73.2,59.9,29.95,ENE,58,1.0,1.0,63,0.00,,SKC,0.00,VWS V13.01,2013-07-20 09:51:00,
2013-07-20 04:57:00,73.2,59.9,29.95,ENE,58,0.0,0.0,63,0.00,,SKC,0.00,VWS V13.01,2013-07-20 09:57:00,
2013-07-20 05:03:00,73.0,60.1,29.95,ENE,58,0.0,0.0,64,0.00,,SKC,0.00,VWS V13.01,2013-07-20 10:03:00,
2013-07-20 05:08:00,72.9,60.5,29.95,ENE,58,0.0,0.0,65,0.00,,SKC,0.00,VWS V13.01,2013-07-20 10:08:00,
2013-07-20 05:13:00,72.6,60.2,29.96,ENE,58,0.0,0.0,65,0.00,,SKC,0.00,VWS V13.01,2013-07-20 10:13:00,
2013-07-20 05:18:00,72.3,59.9,29.96,ENE,58,0.0,0.0,65,0.00,,SKC,0.00,VWS V13.01,2013-07-20 10:18:00,
2013-07-20 05:23:00,72.0,60.0,29.95,ENE,58,0.0,2.0,66,0.00,,SKC,0.00,VWS V13.01,2013-07-20 10:23:00,
2013-07-20 05:29:00,71.8,60.3,29.96,ENE,58,0.0,0.0,67,0.00,,SKC,0.00,VWS V13.01,2013-07-20 10:29:00,
2013-07-20 05:34:00,71.6,60.5,29.96,ENE,58,0.0,0.0,68,0.00,,SKC,0.00,VWS V13.01,2013-07-20 10:34:00,
2013-07-20 05:40:00,71.4,60.3,29.96,ENE,58,0.0,0.0,68,0.00,,SKC,0.00,VWS V13.01,2013-07-20 10:40:00,
2013-07-20 05:45:00,71.2,60.5,29.96,ENE,58,0.0,0.0,69,0.00,,SKC,0.00,VWS V13.01,2013-07-20 10:45:00,
2013-07-20 05:50:00,70.8,60.1,29.96,ENE,58,0.0,0.0,69,0.00,,SKC,0.00,VWS V13.01,2013-07-20 10:50:00,
2013-07-20 05:55:00,70.6,60.3,29.96,ENE,58,0.0,0.0,70,0.00,,SKC,0.00,VWS V13.01,2013-07-20 10:55:00,
2013-07-20 06:00:00,70.2,60.4,29.96,ENE,58,0.0,0.0,71,0.00,,SKC,0.00,VWS V13.01,2013-07-20 11:00:00,
2013-07-20 06:05:00,69.9,60.1,29.96,ENE,58,0.0,0.0,71,0.00,,SKC,0.00,VWS V13.01,2013-07-20 11:05:00,
2013-07-20 06:11:00,69.7,60.3,29.96,ENE,58,0.0,0.0,72,0.00,,SKC,0.00,VWS V13.01,2013-07-20 11:11:00,
2013-07-20 06:16:00,69.4,60.4,29.96,ENE,58,0.0,0.0,73,0.00,,SKC,0.00,VWS V13.01,2013-07-20 11:16:00,
2013-07-20 06:22:00,69.1,60.5,29.95,ENE,58,0.0,0.0,74,0.00,,SKC,0.00,VWS V13.01,2013-07-20 11:22:00,
2013-07-20 06:27:00,68.8,60.2,29.95,ENE,58,0.0,0.0,74,0.00,,SKC,0.00,VWS V13.01,2013-07-20 11:27:00,
2013-07-20 06:32:00,68.6,60.4,29.96,ENE,58,0.0,0.0,75,0.00,,SKC,0.00,VWS V13.01,2013-07-20 11:32:00,
2013-07-20 06:37:00,68.3,60.8,29.96,ENE,64,0.0,0.0,77,0.00,,SKC,0.00,VWS V13.01,2013-07-20 11:37:00,
2013-07-20 06:43:00,68.0,60.9,29.97,ENE,64,0.0,0.0,78,0.00,,SKC,0.00,VWS V13.01,2013-07-20 11:43:00,
2013-07-20 06:49:00,67.8,60.7,29.97,ENE,64,0.0,0.0,78,0.00,,SKC,0.00,VWS V13.01,2013-07-20 11:49:00,
2013-07-20 06:54:00,67.8,61.1,29.97,ENE,64,0.0,0.0,79,0.00,,SKC,0.00,VWS V13.01,2013-07-20 11:54:00,
2013-07-20 07:00:00,67.8,61.1,29.97,ENE,64,0.0,0.0,79,0.00,,SKC,0.00,VWS V13.01,2013-07-20 12:00:00,
2013-07-20 07:05:00,67.8,61.1,29.98,ENE,64,0.0,0.0,79,0.00,,SKC,0.00,VWS V13.01,2013-07-20 12:05:00,
2013-07-20 07:10:00,67.9,61.5,29.98,ENE,64,0.0,0.0,80,0.00,,SKC,0.00,VWS V13.01,2013-07-20 12:10:00,
2013-07-20 07:16:00,68.2,61.8,29.98,ENE,64,0.0,0.0,80,0.00,,SKC,0.00,VWS V13.01,2013-07-20 12:16:00,
2013-07-20 07:21:00,68.4,62.0,29.98,ENE,64,0.0,0.0,80,0.00,,SKC,0.00,VWS V13.01,2013-07-20 12:21:00,
2013-07-20 07:27:00,68.6,61.8,29.98,ENE,64,0.0,0.0,79,0.00,,SKC,0.00,VWS V13.01,2013-07-20 12:27:00,
2013-07-20 07:32:00,69.0,62.2,29.98,ENE,64,0.0,0.0,79,0.00,,SKC,0.00,VWS V13.01,2013-07-20 12:32:00,
2013-07-20 07:37:00,69.7,62.9,29.98,ENE,64,0.0,0.0,79,0.00,,SKC,0.00,VWS V13.01,2013-07-20 12:37:00,
2013-07-20 07:42:00,70.3,62.8,29.97,ENE,64,0.0,0.0,77,0.00,,SKC,0.00,VWS V13.01,2013-07-20 12:42:00,
2013-07-20 07:47:00,71.0,62.7,29.98,ENE,64,0.0,0.0,75,0.00,,SKC,0.00,VWS V13.01,2013-07-20 12:47:00,
2013-07-20 07:53:00,72.0,62.9,29.98,ENE,64,0.0,0.0,73,0.00,,SKC,0.00,VWS V13.01,2013-07-20 12:53:00,
2013-07-20 07:58:00,72.7,62.8,29.98,ENE,66,2.0,4.0,71,0.00,,SKC,0.00,VWS V13.01,2013-07-20 12:58:00,
2013-07-20 08:03:00,73.6,62.8,29.98,ENE,66,0.0,1.0,69,0.00,,SKC,0.00,VWS V13.01,2013-07-20 13:03:00,
2013-07-20 08:09:00,74.1,62.9,29.98,ENE,68,0.0,0.0,68,0.00,,SKC,0.00,VWS V13.01,2013-07-20 13:09:00,
2013-07-20 08:14:00,74.3,63.1,29.98,ENE,70,0.0,0.0,68,0.00,,SKC,0.00,VWS V13.01,2013-07-20 13:14:00,
2013-07-20 08:19:00,74.8,62.7,29.98,East,86,1.0,8.0,66,0.00,,SKC,0.00,VWS V13.01,2013-07-20 13:19:00,
2013-07-20 08:25:00,75.4,62.8,29.98,ESE,112,6.0,6.0,65,0.00,,SKC,0.00,VWS V13.01,2013-07-20 13:25:00,
2013-07-20 08:30:00,75.8,63.2,29.98,East,79,0.0,7.0,65,0.00,,SKC,0.00,VWS V13.01,2013-07-20 13:30:00,
2013-07-20 08:35:00,75.9,63.3,29.98,ESE,121,0.0,1.0,65,0.00,,SKC,0.00,VWS V13.01,2013-07-20 13:35:00,
2013-07-20 08:41:00,75.8,63.6,29.99,East,95,1.0,5.0,66,0.00,,SKC,0.00,VWS V13.01,2013-07-20 13:41:00,
2013-07-20 08:46:00,76.2,63.6,29.99,East,83,4.0,5.0,65,0.00,,SKC,0.00,VWS V13.01,2013-07-20 13:46:00,
2013-07-20 08:51:00,76.9,64.2,29.99,ENE,62,1.0,1.0,65,0.00,,SKC,0.00,VWS V13.01,2013-07-20 13:51:00,
2013-07-20 08:56:00,77.3,64.6,30.00,ENE,64,5.0,5.0,65,0.00,,SKC,0.00,VWS V13.01,2013-07-20 13:56:00,
2013-07-20 09:02:00,78.1,64.0,30.00,ENE,74,0.0,0.0,62,0.00,,SKC,0.00,VWS V13.01,2013-07-20 14:02:00,
2013-07-20 09:08:00,78.8,64.2,30.01,ENE,68,0.0,1.0,61,0.00,,SKC,0.00,VWS V13.01,2013-07-20 14:08:00,
2013-07-20 09:13:00,79.1,64.0,30.01,NE,37,0.0,3.0,60,0.00,,SKC,0.00,VWS V13.01,2013-07-20 14:13:00,
2013-07-20 09:18:00,79.2,64.1,30.01,NE,39,0.0,1.0,60,0.00,,SKC,0.00,VWS V13.01,2013-07-20 14:18:00,
2013-07-20 09:24:00,79.5,65.3,30.02,NE,41,0.0,4.0,62,0.00,,SKC,0.00,VWS V13.01,2013-07-20 14:24:00,
2013-07-20 09:29:00,79.9,64.8,30.02,NE,38,0.0,0.0,60,0.00,,SKC,0.00,VWS V13.01,2013-07-20 14:29:00,
2013-07-20 09:35:00,80.6,65.0,30.01,NNE,30,0.0,5.0,59,0.00,,SKC,0.00,VWS V13.01,2013-07-20 14:35:00,
2013-07-20 09:40:00,81.1,64.4,30.01,NE,52,0.0,5.0,57,0.00,,SKC,0.00,VWS V13.01,2013-07-20 14:40:00,
2013-07-20 09:46:00,81.9,64.2,30.01,East,82,4.0,5.0,55,0.00,,SKC,0.00,VWS V13.01,2013-07-20 14:46:00,
2013-07-20 09:51:00,82.6,64.3,30.01,NNE,19,1.0,1.0,54,0.00,,SKC,0.00,VWS V13.01,2013-07-20 14:51:00,
2013-07-20 09:56:00,83.0,64.7,30.01,ENE,70,4.0,4.0,54,0.00,,SKC,0.00,VWS V13.01,2013-07-20 14:56:00,
2013-07-20 10:02:00,83.3,64.9,30.01,ENE,60,0.0,0.0,54,0.00,,SKC,0.00,VWS V13.01,2013-07-20 15:02:00,
2013-07-20 10:07:00,83.6,64.7,30.02,NE,56,0.0,3.0,53,0.00,,SKC,0.00,VWS V13.01,2013-07-20 15:07:00,
2013-07-20 10:13:00,84.1,64.6,30.02,ENE,78,0.0,2.0,52,0.00,,SKC,0.00,VWS V13.01,2013-07-20 15:13:00,
2013-07-20 10:18:00,84.2,65.8,30.03,East,81,7.0,7.0,54,0.00,,SKC,0.00,VWS V13.01,2013-07-20 15:18:00,
2013-07-20 10:23:00,84.8,65.8,30.03,East,82,1.0,6.0,53,0.00,,SKC,0.00,VWS V13.01,2013-07-20 15:23:00,
2013-07-20 10:28:00,85.5,64.8,30.03,East,79,0.0,3.0,50,0.00,,SKC,0.00,VWS V13.01,2013-07-20 15:28:00,
2013-07-20 10:33:00,86.0,64.0,30.03,East,89,0.0,8.0,48,0.00,,SKC,0.00,VWS V13.01,2013-07-20 15:33:00,
2013-07-20 10:39:00,86.3,65.5,30.03,NE,35,5.0,7.0,50,0.00,,SKC,0.00,VWS V13.01,2013-07-20 15:39:00,
2013-07-20 10:44:00,86.5,65.1,30.04,ENE,63,0.0,1.0,49,0.00,,SKC,0.00,VWS V13.01,2013-07-20 15:44:00,
2013-07-20 10:49:00,86.9,65.5,30.04,NE,39,3.0,7.0,49,0.00,,SKC,0.00,VWS V13.01,2013-07-20 15:49:00,
2013-07-20 10:54:00,87.4,65.3,30.04,ENE,62,0.0,7.0,48,0.00,,SKC,0.00,VWS V13.01,2013-07-20 15:54:00,
2013-07-20 10:59:00,88.1,65.3,30.05,East,79,4.0,4.0,47,0.00,,SKC,0.00,VWS V13.01,2013-07-20 15:59:00,
2013-07-20 11:04:00,88.3,64.9,30.05,ENE,74,0.0,2.0,46,0.00,,SKC,0.00,VWS V13.01,2013-07-20 16:04:00,
2013-07-20 11:09:00,88.1,64.7,30.05,East,89,0.0,5.0,46,0.00,,SKC,0.00,VWS V13.01,2013-07-20 16:09:00,
2013-07-20 11:14:00,89.2,65.7,30.05,ESE,104,6.0,7.0,46,0.00,,SKC,0.00,VWS V13.01,2013-07-20 16:14:00,
2013-07-20 11:19:00,89.5,66.6,30.04,East,83,0.0,0.0,47,0.00,,SKC,0.00,VWS V13.01,2013-07-20 16:19:00,
2013-07-20 11:25:00,88.8,64.7,30.04,ENE,71,0.0,5.0,45,0.00,,SKC,0.00,VWS V13.01,2013-07-20 16:25:00,
2013-07-20 11:30:00,89.0,66.2,30.04,East,83,5.0,5.0,47,0.00,,SKC,0.00,VWS V13.01,2013-07-20 16:30:00,
2013-07-20 11:36:00,88.5,65.7,30.04,SE,130,0.0,0.0,47,0.00,,SKC,0.00,VWS V13.01,2013-07-20 16:36:00,
2013-07-20 11:41:00,87.9,65.2,30.03,East,80,0.0,3.0,47,0.00,,SKC,0.00,VWS V13.01,2013-07-20 16:41:00,
2013-07-20 11:46:00,87.7,66.8,30.03,ENE,60,0.0,0.0,50,0.00,,SKC,0.00,VWS V13.01,2013-07-20 16:46:00,
2013-07-20 11:51:00,87.8,65.7,30.03,East,97,0.0,6.0,48,0.00,,SKC,0.00,VWS V13.01,2013-07-20 16:51:00,
2013-07-20 11:57:00,88.7,65.3,30.02,SSW,196,0.0,0.0,46,0.00,,SKC,0.00,VWS V13.01,2013-07-20 16:57:00,
2013-07-20 12:03:00,88.3,66.1,30.02,ESE,103,0.0,1.0,48,0.00,,SKC,0.00,VWS V13.01,2013-07-20 17:03:00,
2013-07-20 12:08:00,89.1,65.6,30.02,SSW,213,0.0,4.0,46,0.00,,SKC,0.00,VWS V13.01,2013-07-20 17:08:00,
2013-07-20 12:13:00,89.2,64.5,30.01,East,85,0.0,0.0,44,0.00,,SKC,0.00,VWS V13.01,2013-07-20 17:13:00,
2013-07-20 12:18:00,89.9,65.1,30.01,SE,129,0.0,6.0,44,0.00,,SKC,0.00,VWS V13.01,2013-07-20 17:18:00,
2013-07-20 12:23:00,91.1,64.8,30.01,ENE,72,0.0,3.0,42,0.00,,SKC,0.00,VWS V13.01,2013-07-20 17:23:00,
2013-07-20 12:29:00,92.1,65.0,30.00,East,85,0.0,4.0,41,0.00,,SKC,0.00,VWS V13.01,2013-07-20 17:29:00,
2013-07-20 12:34:00,93.5,65.6,30.00,NE,35,0.0,2.0,40,0.00,,SKC,0.00,VWS V13.01,2013-07-20 17:34:00,
2013-07-20 12:39:00,92.3,63.8,30.00,East,83,3.0,6.0,39,0.00,,SKC,0.00,VWS V13.01,2013-07-20 17:39:00,
2013-07-20 12:44:00,91.3,64.3,30.00,East,85,0.0,6.0,41,0.00,,SKC,0.00,VWS V13.01,2013-07-20 17:44:00,
2013-07-20 12:49:00,91.7,64.0,29.99,East,89,11.0,12.0,40,0.00,,SKC,0.00,VWS V13.01,2013-07-20 17:49:00,
2013-07-20 12:54:00,90.2,64.0,29.98,South,177,0.0,5.0,42,0.00,,SKC,0.00,VWS V13.01,2013-07-20 17:54:00,
2013-07-20 12:59:00,91.0,65.4,29.99,ENE,60,0.0,4.0,43,0.00,,SKC,0.00,VWS V13.01,2013-07-20 17:59:00,
2013-07-20 13:04:00,93.0,64.4,29.99,East,80,10.0,14.0,39,0.00,,SKC,0.00,VWS V13.01,2013-07-20 18:04:00,
2013-07-20 13:10:00,92.2,64.4,29.98,NE,47,0.0,6.0,40,0.00,,SKC,0.00,VWS V13.01,2013-07-20 18:10:00,
2013-07-20 13:15:00,93.3,63.9,29.98,East,93,12.0,13.0,38,0.00,,SKC,0.00,VWS V13.01,2013-07-20 18:15:00,
2013-07-20 13:20:00,92.8,64.9,29.98,ESE,110,0.0,0.0,40,0.00,,SKC,0.00,VWS V13.01,2013-07-20 18:20:00,
2013-07-20 13:26:00,92.3,64.5,29.98,SSE,166,1.0,7.0,40,0.00,,SKC,0.00,VWS V13.01,2013-07-20 18:26:00,
2013-07-20 13:31:00,91.6,63.9,29.98,SE,145,0.0,2.0,40,0.00,,SKC,0.00,VWS V13.01,2013-07-20 18:31:00,
2013-07-20 13:37:00,91.5,64.5,29.98,East,85,0.0,1.0,41,0.00,,SKC,0.00,VWS V13.01,2013-07-20 18:37:00,
2013-07-20 13:43:00,91.3,64.3,29.98,ENE,75,2.0,2.0,41,0.00,,SKC,0.00,VWS V13.01,2013-07-20 18:43:00,
2013-07-20 13:48:00,93.3,66.8,29.98,ENE,60,0.0,0.0,42,0.00,,SKC,0.00,VWS V13.01,2013-07-20 18:48:00,
2013-07-20 13:53:00,93.9,65.9,29.98,SSW,197,0.0,1.0,40,0.00,,SKC,0.00,VWS V13.01,2013-07-20 18:53:00,
2013-07-20 13:58:00,93.5,66.3,29.98,ESE,120,0.0,2.0,41,0.00,,SKC,0.00,VWS V13.01,2013-07-20 18:58:00,
2013-07-20 14:03:00,93.3,66.1,29.98,ESE,119,0.0,5.0,41,0.00,,SKC,0.00,VWS V13.01,2013-07-20 19:03:00,
2013-07-20 14:08:00,92.4,65.3,29.98,SE,136,0.0,4.0,41,0.00,,SKC,0.00,VWS V13.01,2013-07-20 19:08:00,
2013-07-20 14:13:00,92.4,64.6,29.98,ENE,78,5.0,6.0,40,0.00,,SKC,0.00,VWS V13.01,2013-07-20 19:13:00,
2013-07-20 14:19:00,92.2,63.0,29.97,East,89,0.0,1.0,38,0.00,,SKC,0.00,VWS V13.01,2013-07-20 19:19:00,
2013-07-20 14:25:00,91.3,64.3,29.97,SSW,211,0.0,3.0,41,0.00,,SKC,0.00,VWS V13.01,2013-07-20 19:25:00,
2013-07-20 14:31:00,90.7,63.8,29.98,ENE,62,0.0,2.0,41,0.00,,SKC,0.00,VWS V13.01,2013-07-20 19:31:00,
2013-07-20 14:36:00,90.9,64.0,29.98,South,187,0.0,5.0,41,0.00,,SKC,0.00,VWS V13.01,2013-07-20 19:36:00,
2013-07-20 14:41:00,90.2,63.3,29.97,ESE,103,0.0,4.0,41,0.00,,SKC,0.00,VWS V13.01,2013-07-20 19:41:00,
2013-07-20 14:46:00,89.7,64.2,29.97,SSW,209,0.0,5.0,43,0.00,,SKC,0.00,VWS V13.01,2013-07-20 19:46:00,
2013-07-20 14:51:00,89.3,63.9,29.97,SE,133,0.0,0.0,43,0.00,,SKC,0.00,VWS V13.01,2013-07-20 19:51:00,
2013-07-20 14:56:00,90.9,64.0,29.97,South,189,3.0,3.0,41,0.00,,SKC,0.00,VWS V13.01,2013-07-20 19:56:00,
2013-07-20 15:01:00,91.4,65.8,29.97,ENE,60,2.0,5.0,43,0.00,,SKC,0.00,VWS V13.01,2013-07-20 20:01:00,
2013-07-20 15:06:00,91.8,63.3,29.97,WSW,239,0.0,0.0,39,0.00,,SKC,0.00,VWS V13.01,2013-07-20 20:06:00,
2013-07-20 15:11:00,92.1,65.0,29.96,SSW,213,0.0,0.0,41,0.00,,SKC,0.00,VWS V13.01,2013-07-20 20:11:00,
2013-07-20 15:16:00,92.8,64.9,29.96,ESE,116,0.0,2.0,40,0.00,,SKC,0.00,VWS V13.01,2013-07-20 20:16:00,
2013-07-20 15:21:00,93.8,64.4,29.96,SSW,193,0.0,4.0,38,0.00,,SKC,0.00,VWS V13.01,2013-07-20 20:21:00,
2013-07-20 15:27:00,92.7,65.6,29.96,SSW,198,0.0,0.0,41,0.00,,SKC,0.00,VWS V13.01,2013-07-20 20:27:00,
2013-07-20 15:32:00,93.3,64.7,29.96,SSE,154,0.0,0.0,39,0.00,,SKC,0.00,VWS V13.01,2013-07-20 20:32:00,
2013-07-20 15:37:00,93.5,63.3,29.96,SSW,198,0.0,0.0,37,0.00,,SKC,0.00,VWS V13.01,2013-07-20 20:37:00,
2013-07-20 15:43:00,96.7,62.9,29.96,SE,145,2.0,3.0,33,0.00,,SKC,0.00,VWS V13.01,2013-07-20 20:43:00,
2013-07-20 15:48:00,98.0,64.0,29.97,SSE,167,2.0,2.0,33,0.00,,SKC,0.00,VWS V13.01,2013-07-20 20:48:00,
2013-07-20 15:53:00,94.4,63.4,29.97,WSW,241,0.0,3.0,36,0.00,,SKC,0.00,VWS V13.01,2013-07-20 20:53:00,
2013-07-20 15:58:00,91.9,62.7,29.97,WSW,244,0.0,0.0,38,0.00,,SKC,0.00,VWS V13.01,2013-07-20 20:58:00,
2013-07-20 16:03:00,91.1,63.4,29.98,WSW,244,0.0,0.0,40,0.00,,SKC,0.00,VWS V13.01,2013-07-20 21:03:00,
2013-07-20 16:08:00,90.5,62.9,29.97,WSW,244,0.0,2.0,40,0.00,,SKC,0.00,VWS V13.01,2013-07-20 21:08:00,
2013-07-20 16:13:00,90.5,63.6,29.97,South,187,0.0,3.0,41,0.00,,SKC,0.00,VWS V13.01,2013-07-20 21:13:00,
2013-07-20 16:19:00,89.5,61.3,29.97,SW,235,0.0,1.0,39,0.00,,SKC,0.00,VWS V13.01,2013-07-20 21:19:00,
2013-07-20 16:24:00,90.2,64.7,29.96,SW,229,1.0,1.0,43,0.00,,SKC,0.00,VWS V13.01,2013-07-20 21:24:00,
2013-07-20 16:29:00,91.3,64.3,29.96,SSW,205,0.0,4.0,41,0.00,,SKC,0.00,VWS V13.01,2013-07-20 21:29:00,
2013-07-20 16:34:00,90.4,64.2,29.95,SW,221,0.0,2.0,42,0.00,,SKC,0.00,VWS V13.01,2013-07-20 21:34:00,
2013-07-20 16:39:00,90.4,62.1,29.95,SE,139,0.0,1.0,39,0.00,,SKC,0.00,VWS V13.01,2013-07-20 21:39:00,
2013-07-20 16:44:00,90.6,63.0,29.95,SE,135,0.0,2.0,40,0.00,,SKC,0.00,VWS V13.01,2013-07-20 21:44:00,
2013-07-20 16:50:00,90.1,63.2,29.94,ESE,122,0.0,9.0,41,0.00,,SKC,0.00,VWS V13.01,2013-07-20 21:50:00,
2013-07-20 16:56:00,90.6,63.7,29.93,ESE,115,0.0,6.0,41,0.00,,SKC,0.00,VWS V13.01,2013-07-20 21:56:00,
2013-07-20 17:02:00,91.9,64.2,29.93,East,86,0.0,6.0,40,0.00,,SKC,0.00,VWS V13.01,2013-07-20 22:02:00,
2013-07-20 17:07:00,92.4,62.4,29.92,ENE,75,0.0,7.0,37,0.00,,SKC,0.00,VWS V13.01,2013-07-20 22:07:00,
2013-07-20 17:12:00,92.3,61.5,29.92,SE,136,0.0,4.0,36,0.00,,SKC,0.00,VWS V13.01,2013-07-20 22:12:00,
2013-07-20 17:17:00,91.5,61.6,29.91,South,190,7.0,10.0,37,0.00,,SKC,0.00,VWS V13.01,2013-07-20 22:17:00,
2013-07-20 17:22:00,91.0,62.6,29.91,SE,125,0.0,6.0,39,0.00,,SKC,0.00,VWS V13.01,2013-07-20 22:22:00,
2013-07-20 17:27:00,90.6,61.5,29.92,SSW,206,0.0,9.0,38,0.00,,SKC,0.00,VWS V13.01,2013-07-20 22:27:00,
2013-07-20 17:32:00,90.2,61.9,29.92,East,96,0.0,7.0,39,0.00,,SKC,0.00,VWS V13.01,2013-07-20 22:32:00,
2013-07-20 17:37:00,90.4,62.1,29.92,South,178,1.0,4.0,39,0.00,,SKC,0.00,VWS V13.01,2013-07-20 22:37:00,
2013-07-20 17:42:00,90.1,62.5,29.91,SSW,202,5.0,10.0,40,0.00,,SKC,0.00,VWS V13.01,2013-07-20 22:42:00,
2013-07-20 17:47:00,88.3,61.6,29.91,SE,140,4.0,11.0,41,0.00,,SKC,0.00,VWS V13.01,2013-07-20 22:47:00,
2013-07-20 17:52:00,87.5,60.9,29.91,South,177,6.0,11.0,41,0.00,,SKC,0.00,VWS V13.01,2013-07-20 22:52:00,
2013-07-20 17:57:00,87.4,60.8,29.90,South,178,8.0,12.0,41,0.00,,SKC,0.00,VWS V13.01,2013-07-20 22:57:00,
2013-07-20 18:03:00,87.1,61.9,29.90,SSE,159,0.0,2.0,43,0.00,,SKC,0.00,VWS V13.01,2013-07-20 23:03:00,
2013-07-20 18:09:00,86.9,59.0,29.90,SE,135,0.0,6.0,39,0.00,,SKC,0.00,VWS V13.01,2013-07-20 23:09:00,
2013-07-20 18:14:00,87.0,58.3,29.90,ESE,114,0.0,9.0,38,0.00,,SKC,0.00,VWS V13.01,2013-07-20 23:14:00,
2013-07-20 18:19:00,87.2,60.0,29.90,South,191,0.0,2.0,40,0.00,,SKC,0.00,VWS V13.01,2013-07-20 23:19:00,
2013-07-20 18:24:00,87.6,59.6,29.90,South,174,0.0,7.0,39,0.00,,SKC,0.00,VWS V13.01,2013-07-20 23:24:00,
2013-07-20 18:29:00,87.9,61.3,29.90,SE,127,5.0,7.0,41,0.00,,SKC,0.00,VWS V13.01,2013-07-20 23:29:00,
2013-07-20 18:35:00,87.6,58.9,29.90,SSE,157,1.0,12.0,38,0.00,,SKC,0.00,VWS V13.01,2013-07-20 23:35:00,
2013-07-20 18:41:00,86.6,58.0,29.90,ESE,115,0.0,8.0,38,0.00,,SKC,0.00,VWS V13.01,2013-07-20 23:41:00,
2013-07-20 18:47:00,86.0,58.9,29.90,ESE,122,0.0,5.0,40,0.00,,SKC,0.00,VWS V13.01,2013-07-20 23:47:00,
2013-07-20 18:52:00,85.7,59.3,29.90,SSW,192,2.0,7.0,41,0.00,,SKC,0.00,VWS V13.01,2013-07-20 23:52:00,
2013-07-20 18:57:00,85.4,59.7,29.90,South,188,1.0,6.0,42,0.00,,SKC,0.00,VWS V13.01,2013-07-20 23:57:00,
2013-07-20 19:02:00,85.2,60.2,29.90,South,183,0.0,0.0,43,0.00,,SKC,0.00,VWS V13.01,2013-07-21 00:02:00,
2013-07-20 19:07:00,85.0,60.0,29.90,SSW,199,0.0,0.0,43,0.00,,SKC,0.00,VWS V13.01,2013-07-21 00:07:00,
2013-07-20 19:13:00,84.9,59.9,29.90,SSE,166,0.0,1.0,43,0.00,,SKC,0.00,VWS V13.01,2013-07-21 00:13:00,
2013-07-20 19:18:00,84.8,60.5,29.90,SSE,166,0.0,0.0,44,0.00,,SKC,0.00,VWS V13.01,2013-07-21 00:18:00,
2013-07-20 19:23:00,84.8,59.8,29.90,South,176,0.0,5.0,43,0.00,,SKC,0.00,VWS V13.01,2013-07-21 00:23:00,
2013-07-20 19:28:00,85.1,60.1,29.90,SE,132,0.0,1.0,43,0.00,,SKC,0.00,VWS V13.01,2013-07-21 00:28:00,
2013-07-20 19:33:00,85.4,59.7,29.90,SE,132,0.0,0.0,42,0.00,,SKC,0.00,VWS V13.01,2013-07-21 00:33:00,
2013-07-20 19:38:00,85.6,60.6,29.90,SE,132,0.0,0.0,43,0.00,,SKC,0.00,VWS V13.01,2013-07-21 00:38:00,
2013-07-20 19:43:00,85.8,60.7,29.90,SE,132,0.0,2.0,43,0.00,,SKC,0.00,VWS V13.01,2013-07-21 00:43:00,
2013-07-20 19:48:00,86.1,61.0,29.90,SE,132,0.0,0.0,43,0.00,,SKC,0.00,VWS V13.01,2013-07-21 00:48:00,
2013-07-20 19:53:00,86.3,60.5,29.91,SE,132,0.0,1.0,42,0.00,,SKC,0.00,VWS V13.01,2013-07-21 00:53:00,
2013-07-20 19:59:00,86.6,61.5,29.91,NNE,33,0.0,2.0,43,0.00,,SKC,0.00,VWS V13.01,2013-07-21 00:59:00,
2013-07-20 20:05:00,86.7,62.2,29.91,NNE,33,0.0,0.0,44,0.00,,SKC,0.00,VWS V13.01,2013-07-21 01:05:00,
2013-07-20 20:10:00,86.9,62.4,29.91,NNE,33,0.0,0.0,44,0.00,,SKC,0.00,VWS V13.01,2013-07-21 01:10:00,
2013-07-20 20:15:00,87.1,61.2,29.91,NNE,33,0.0,0.0,42,0.00,,SKC,0.00,VWS V13.01,2013-07-21 01:15:00,
2013-07-20 20:20:00,87.3,62.7,29.92,NNE,33,0.0,0.0,44,0.00,,SKC,0.00,VWS V13.01,2013-07-21 01:20:00,
2013-07-20 20:25:00,87.5,63.6,29.92,NNE,33,0.0,0.0,45,0.00,,SKC,0.00,VWS V13.01,2013-07-21 01:25:00,
2013-07-20 20:31:00,87.3,62.1,29.91,NNE,33,0.0,0.0,43,0.00,,SKC,0.00,VWS V13.01,2013-07-21 01:31:00,
2013-07-20 20:37:00,87.0,63.1,29.92,NNE,33,0.0,0.0,45,0.00,,SKC,0.00,VWS V13.01,2013-07-21 01:37:00,
2013-07-20 20:42:00,86.7,62.8,29.92,NNE,33,0.0,0.0,45,0.00,,SKC,0.00,VWS V13.01,2013-07-21 01:42:00,
2013-07-20 20:47:00,86.2,63.0,29.92,NNE,33,0.0,0.0,46,0.00,,SKC,0.00,VWS V13.01,2013-07-21 01:47:00,
2013-07-20 20:55:00,85.6,63.1,29.92,NNE,33,0.0,0.0,47,0.00,,SKC,0.00,VWS V13.01,2013-07-21 01:55:00,
2013-07-20 21:01:00,85.0,63.1,29.92,NNE,33,0.0,0.0,48,0.00,,SKC,0.00,VWS V13.01,2013-07-21 02:01:00,
2013-07-20 21:06:00,84.5,63.3,29.93,NNE,33,0.0,0.0,49,0.00,,SKC,0.00,VWS V13.01,2013-07-21 02:06:00,
2013-07-20 21:11:00,83.8,63.2,29.93,NNE,33,0.0,0.0,50,0.00,,SKC,0.00,VWS V13.01,2013-07-21 02:11:00,
2013-07-20 21:16:00,83.2,63.2,29.93,NNE,33,0.0,0.0,51,0.00,,SKC,0.00,VWS V13.01,2013-07-21 02:16:00,
2013-07-20 21:21:00,82.7,62.8,29.94,NNE,33,0.0,0.0,51,0.00,,SKC,0.00,VWS V13.01,2013-07-21 02:21:00,
2013-07-20 21:26:00,82.3,62.4,29.94,NNE,33,0.0,0.0,51,0.00,,SKC,0.00,VWS V13.01,2013-07-21 02:26:00,
2013-07-20 21:32:00,81.7,62.4,29.95,NNE,33,0.0,0.0,52,0.00,,SKC,0.00,VWS V13.01,2013-07-21 02:32:00,
2013-07-20 21:37:00,81.3,62.5,29.95,NNE,33,0.0,0.0,53,0.00,,SKC,0.00,VWS V13.01,2013-07-21 02:37:00,
2013-07-20 21:42:00,81.0,62.8,29.95,NNE,33,0.0,0.0,54,0.00,,SKC,0.00,VWS V13.01,2013-07-21 02:42:00,
2013-07-20 21:48:00,80.6,63.0,29.96,NNE,33,0.0,0.0,55,0.00,,SKC,0.00,VWS V13.01,2013-07-21 02:48:00,
2013-07-20 21:53:00,80.2,63.6,29.96,NNE,33,0.0,0.0,57,0.00,,SKC,0.00,VWS V13.01,2013-07-21 02:53:00,
2013-07-20 21:58:00,79.8,63.2,29.96,NNE,33,0.0,0.0,57,0.00,,SKC,0.00,VWS V13.01,2013-07-21 02:58:00,
2013-07-20 22:03:00,79.5,63.9,29.96,NNE,33,0.0,0.0,59,0.00,,SKC,0.00,VWS V13.01,2013-07-21 03:03:00,
2013-07-20 22:08:00,79.1,63.6,29.96,NNE,33,0.0,0.0,59,0.00,,SKC,0.00,VWS V13.01,2013-07-21 03:08:00,
2013-07-20 22:13:00,78.7,63.2,29.96,NNE,33,0.0,0.0,59,0.00,,SKC,0.00,VWS V13.01,2013-07-21 03:13:00,
2013-07-20 22:18:00,78.3,63.3,29.96,NNE,33,0.0,0.0,60,0.00,,SKC,0.00,VWS V13.01,2013-07-21 03:18:00,
2013-07-20 22:24:00,77.9,63.4,29.96,NNE,33,0.0,0.0,61,0.00,,SKC,0.00,VWS V13.01,2013-07-21 03:24:00,
2013-07-20 22:29:00,77.7,63.7,29.96,NNE,33,0.0,0.0,62,0.00,,SKC,0.00,VWS V13.01,2013-07-21 03:29:00,
2013-07-20 22:34:00,77.4,63.4,29.96,NNE,33,0.0,0.0,62,0.00,,SKC,0.00,VWS V13.01,2013-07-21 03:34:00,
2013-07-20 22:39:00,77.3,63.7,29.97,NNE,33,0.0,0.0,63,0.00,,SKC,0.00,VWS V13.01,2013-07-21 03:39:00,
2013-07-20 22:44:00,77.1,63.5,29.97,NNE,33,0.0,0.0,63,0.00,,SKC,0.00,VWS V13.01,2013-07-21 03:44:00,
2013-07-20 22:49:00,76.9,63.8,29.96,NNE,33,0.0,0.0,64,0.00,,SKC,0.00,VWS V13.01,2013-07-21 03:49:00,
2013-07-20 22:55:00,76.7,64.1,29.96,NNE,33,0.0,0.0,65,0.00,,SKC,0.00,VWS V13.01,2013-07-21 03:55:00,
2013-07-20 23:00:00,76.5,64.3,29.96,NNE,33,0.0,0.0,66,0.00,,SKC,0.00,VWS V13.01,2013-07-21 04:00:00,
2013-07-20 23:01:00,76.5,64.3,29.96,NNE,33,0.0,0.0,66,0.00,,SKC,0.00,VWS V13.01,2013-07-21 04:01:00,
2013-07-20 23:02:00,76.5,64.3,29.96,NNE,33,0.0,0.0,66,0.00,,SKC,0.00,VWS V13.01,2013-07-21 04:02:00,
2013-07-20 23:04:00,76.4,64.2,29.96,NNE,33,0.0,0.0,66,0.00,,SKC,0.00,VWS V13.01,2013-07-21 04:04:00,
2013-07-20 23:09:00,76.2,64.0,29.96,NNE,33,0.0,0.0,66,0.00,,SKC,0.00,VWS V13.01,2013-07-21 04:09:00,
2013-07-20 23:10:00,76.2,64.0,29.96,NNE,33,0.0,0.0,66,0.00,,SKC,0.00,VWS V13.01,2013-07-21 04:10:00,
2013-07-20 23:12:00,76.1,63.9,29.96,NNE,33,0.0,0.0,66,0.00,,SKC,0.00,VWS V13.01,2013-07-21 04:12:00,
2013-07-20 23:17:00,76.0,63.8,29.95,NNE,33,0.0,0.0,66,0.00,,SKC,0.00,VWS V13.01,2013-07-21 04:17:00,
2013-07-20 23:22:00,75.9,64.2,29.95,NNE,33,0.0,0.0,67,0.00,,SKC,0.00,VWS V13.01,2013-07-21 04:22:00,
2013-07-20 23:27:00,75.8,64.1,29.95,NNE,33,0.0,0.0,67,0.00,,SKC,0.00,VWS V13.01,2013-07-21 04:27:00,
2013-07-20 23:32:00,75.7,64.0,29.95,NNE,33,0.0,0.0,67,0.00,,SKC,0.00,VWS V13.01,2013-07-21 04:32:00,
2013-07-20 23:37:00,75.6,64.3,29.95,NNE,33,0.0,0.0,68,0.00,,SKC,0.00,VWS V13.01,2013-07-21 04:37:00,
2013-07-20 23:42:00,75.5,64.2,29.94,NNE,33,0.0,0.0,68,0.00,,SKC,0.00,VWS V13.01,2013-07-21 04:42:00,
2013-07-20 23:47:00,75.4,64.1,29.94,NNE,33,0.0,0.0,68,0.00,,SKC,0.00,VWS V13.01,2013-07-21 04:47:00,
2013-07-20 23:52:00,75.3,64.0,29.95,NNE,33,0.0,0.0,68,0.00,,SKC,0.00,VWS V13.01,2013-07-21 04:52:00,
2013-07-20 23:57:00,75.1,64.2,29.95,NNE,33,0.0,0.0,69,0.00,,SKC,0.00,VWS V13.01,2013-07-21 04:57:00,